TimeEST,TemperatureF,Dew PointF,Humidity,Sea Level PressureIn,VisibilityMPH,Wind Direction,Wind SpeedMPH,Gust SpeedMPH,PrecipitationIn,Events,Conditions,WindDirDegrees,DateUTC
12:51 AM,28.9,27.0,92,30.04,1.5,NNE,5.8,-,N/A,,Overcast,20,2013-12-23 05:51:00
1:46 AM,28.4,26.6,93,30.04,2.0,NNE,6.9,-,N/A,,Overcast,20,2013-12-23 06:46:00
1:51 AM,28.0,27.0,96,30.06,2.0,North,6.9,-,N/A,,Overcast,10,2013-12-23 06:51:00
2:51 AM,28.0,26.1,92,30.06,3.0,NE,5.8,-,N/A,,Overcast,40,2013-12-23 07:51:00
3:04 AM,28.0,27.0,96,30.06,2.5,NNE,3.5,-,N/A,,Overcast,20,2013-12-23 08:04:00
3:51 AM,28.0,27.0,96,30.05,2.0,NE,5.8,-,N/A,,Overcast,40,2013-12-23 08:51:00
4:46 AM,28.4,26.6,93,30.06,1.5,North,5.8,-,N/A,,Overcast,360,2013-12-23 09:46:00
4:51 AM,28.0,27.0,96,30.06,1.5,North,5.8,-,N/A,,Overcast,360,2013-12-23 09:51:00
5:17 AM,28.0,27.0,96,30.08,2.5,North,3.5,-,N/A,,Overcast,360,2013-12-23 10:17:00
5:35 AM,28.0,27.0,96,30.07,3.0,North,5.8,-,N/A,,Overcast,360,2013-12-23 10:35:00
5:51 AM,28.0,27.0,96,30.07,2.5,Calm,Calm,-,N/A,,Overcast,0,2013-12-23 10:51:00
6:03 AM,28.9,27.0,92,30.05,3.0,NNE,8.1,-,N/A,,Overcast,20,2013-12-23 11:03:00
6:36 AM,28.0,27.0,96,30.06,2.5,Calm,Calm,-,N/A,,Overcast,0,2013-12-23 11:36:00
6:51 AM,28.0,27.0,96,30.05,2.0,Calm,Calm,-,N/A,,Overcast,0,2013-12-23 11:51:00
7:11 AM,28.9,27.0,92,30.05,1.8,North,4.6,-,0.00,Rain,Light Freezing Rain,360,2013-12-23 12:11:00
7:45 AM,28.4,26.6,93,30.05,2.0,North,6.9,-,0.00,,Overcast,350,2013-12-23 12:45:00
7:51 AM,28.9,27.0,92,30.06,1.8,North,5.8,-,0.00,,Overcast,360,2013-12-23 12:51:00
8:07 AM,28.9,28.0,96,30.07,2.5,NW,3.5,-,0.00,,Overcast,320,2013-12-23 13:07:00
8:23 AM,28.9,28.0,96,30.04,1.8,NE,3.5,-,0.00,Rain,Light Freezing Rain,40,2013-12-23 13:23:00
8:44 AM,30.0,28.0,92,30.08,2.5,NNW,5.8,-,0.01,Rain,Light Freezing Rain,330,2013-12-23 13:44:00
8:46 AM,30.2,28.4,93,30.07,3.0,NNW,5.8,-,0.01,,Overcast,330,2013-12-23 13:46:00
8:51 AM,30.0,28.0,92,30.08,3.0,NNW,6.9,-,0.01,,Overcast,330,2013-12-23 13:51:00
9:05 AM,30.0,28.0,92,30.08,3.0,NW,8.1,-,0.01,Rain,Light Freezing Rain,320,2013-12-23 14:05:00
9:19 AM,30.9,28.0,89,30.08,3.0,NNW,9.2,-,0.03,Rain,Light Freezing Rain,330,2013-12-23 14:19:00
9:32 AM,30.9,28.9,92,30.10,3.0,NNW,8.1,-,0.04,Rain,Light Freezing Rain,330,2013-12-23 14:32:00
9:51 AM,30.9,30.0,96,30.09,4.0,North,3.5,-,0.06,Rain,Light Freezing Rain,350,2013-12-23 14:51:00
10:05 AM,32.0,28.9,88,30.06,6.0,North,5.8,-,0.00,,Overcast,350,2013-12-23 15:05:00
10:51 AM,32.0,30.0,92,30.04,3.0,Calm,Calm,-,0.01,,Overcast,0,2013-12-23 15:51:00
11:47 AM,32.0,30.2,93,30.00,2.5,North,4.6,-,0.04,,Overcast,350,2013-12-23 16:47:00
11:51 AM,32.0,30.9,96,30.00,4.0,North,4.6,-,0.04,,Overcast,350,2013-12-23 16:51:00
12:51 PM,33.1,30.9,92,29.99,2.0,Calm,Calm,-,0.00,,Overcast,0,2013-12-23 17:51:00
1:07 PM,33.1,30.9,92,29.98,4.0,North,4.6,-,0.00,,Overcast,350,2013-12-23 18:07:00
1:51 PM,33.1,30.9,92,29.99,7.0,NW,4.6,-,0.00,,Overcast,310,2013-12-23 18:51:00
2:34 PM,33.1,32.0,96,29.98,1.8,Calm,Calm,-,0.01,Rain,Light Rain,0,2013-12-23 19:34:00
2:51 PM,33.1,30.9,92,29.97,1.8,NNE,3.5,-,0.02,Rain,Light Rain,30,2013-12-23 19:51:00
3:02 PM,33.1,30.9,92,29.97,3.0,Calm,Calm,-,0.00,Rain,Light Rain,0,2013-12-23 20:02:00
3:09 PM,33.1,30.9,92,29.98,1.8,NNW,3.5,-,0.01,Rain,Rain,330,2013-12-23 20:09:00
3:25 PM,33.1,30.9,92,29.96,2.0,North,4.6,-,0.03,Rain,Light Rain,10,2013-12-23 20:25:00
3:47 PM,33.8,32.0,93,29.97,4.0,Calm,Calm,-,0.03,Rain,Light Rain,0,2013-12-23 20:47:00
3:51 PM,33.1,32.0,96,29.98,5.0,Calm,Calm,-,0.03,Rain,Light Rain,0,2013-12-23 20:51:00
4:51 PM,33.1,32.0,96,29.98,5.0,Calm,Calm,-,0.01,Rain,Light Rain,0,2013-12-23 21:51:00
5:22 PM,33.1,30.9,92,29.98,1.8,Calm,Calm,-,0.01,Rain,Light Rain,0,2013-12-23 22:22:00
5:32 PM,33.1,30.9,92,29.99,3.0,SW,3.5,-,0.01,Rain,Light Rain,220,2013-12-23 22:32:00
5:39 PM,33.1,30.9,92,29.99,4.0,Calm,Calm,-,0.01,,Overcast,0,2013-12-23 22:39:00
5:51 PM,33.1,32.0,96,29.99,3.0,Calm,Calm,-,0.01,Rain,Light Rain,0,2013-12-23 22:51:00
6:28 PM,33.1,30.9,92,30.01,2.5,Calm,Calm,-,0.00,Rain,Light Rain,0,2013-12-23 23:28:00
6:49 PM,33.8,32.0,93,30.01,1.2,Calm,Calm,-,0.02,Rain,Light Rain,0,2013-12-23 23:49:00
6:51 PM,33.1,32.0,96,30.02,1.2,Calm,Calm,-,0.02,Rain,Light Rain,0,2013-12-23 23:51:00
7:05 PM,33.1,30.9,92,30.03,2.5,Calm,Calm,-,0.00,Rain,Light Rain,0,2013-12-24 00:05:00
7:26 PM,33.1,32.0,96,30.02,1.8,Calm,Calm,-,0.01,Rain,Light Rain,0,2013-12-24 00:26:00
7:43 PM,33.1,32.0,96,30.03,2.5,Calm,Calm,-,0.02,Rain,Light Rain,0,2013-12-24 00:43:00
7:51 PM,33.1,32.0,96,30.03,2.5,Calm,Calm,-,0.02,Rain,Light Rain,0,2013-12-24 00:51:00
7:59 PM,33.1,32.0,96,30.03,3.0,Calm,Calm,-,0.00,Rain,Light Rain,0,2013-12-24 00:59:00
8:10 PM,33.1,30.9,92,30.04,2.5,Calm,Calm,-,0.00,Rain,Light Rain,0,2013-12-24 01:10:00
8:26 PM,33.1,30.9,92,30.04,3.0,NW,3.5,-,0.00,,Overcast,320,2013-12-24 01:26:00
8:34 PM,33.1,30.9,92,30.03,2.5,Calm,Calm,-,0.00,,Overcast,0,2013-12-24 01:34:00
8:51 PM,33.1,30.9,92,30.03,2.0,NNW,3.5,-,0.00,,Overcast,340,2013-12-24 01:51:00
9:11 PM,34.0,32.0,92,30.03,5.0,NW,5.8,-,N/A,,Overcast,310,2013-12-24 02:11:00
9:51 PM,33.1,32.0,96,30.03,7.0,NNW,5.8,-,N/A,,Overcast,340,2013-12-24 02:51:00
10:12 PM,33.1,30.9,92,30.03,3.0,NE,3.5,-,N/A,,Mostly Cloudy,40,2013-12-24 03:12:00
10:51 PM,34.0,32.0,92,30.07,6.0,Calm,Calm,-,N/A,,Clear,0,2013-12-24 03:51:00
11:51 PM,34.0,30.9,89,30.07,9.0,NW,3.5,-,N/A,,Mostly Cloudy,320,2013-12-24 04:51:00